sat.trackr.live / text

‹ back to catalog

STARLINK-33799

NORAD 63447 · 2025-069Q

PAYLOAD ACTIVE UNKNOWN

§ Identity

Operator
Country
US
Launch date
2025-04-04
Launch site
AFWTR
Launch vehicle
Mass (kg)
RCS (m²)

Purposes: comms

External: N2YO · Heavens-Above · Gunter

§ Orbital elements

Epoch: 2026-09-20T21:00:10.895904Z

Period
93.85 min
Inclination
53.1602°
Eccentricity
0.0001117
Mean motion
15.34396669 rev/d
Perigee alt
461.9 km
Apogee alt
463.5 km
Semi-major
6,840.9 km
B*
5.6719e-4
RAAN
314.0755°
Arg perigee
84.4439°
Mean anomaly
275.6691°
Rev number
8,320

§ Raw data

STARLINK-337991 63447U 25069Q   26263.87512611  .00018833  00000+0  56719-3 0  99992 63447  53.1602 314.0755 0001117  84.4439 275.6691 15.34396669 83201

JSON: /api/v1/satellites/63447 · /tle

For live sub-satellite position, see the globe view (requires WebGL).

§ Visibility from observer

Set your observer location to see the next 7 days of passes ≥ 10°. The values pass through the URL so the page stays shareable.

No JS? Fill the form by hand. The geolocation button needs JavaScript.